Regional Weather Roundup
Issued by NWS Charleston, SC

Current Version | Previous Version | Text Only | Print | Product List | Glossary Off
Versions: 1 2 3 4 5 6 7 8 9 10 11 12 13 14 15 16 17 18 19 20 21 22 23 24 25 26 27 28 29 30 31 32 33 34 35 36 37 38 39 40 41 42 43 44 45 46 47 48 49 50

000
ASUS42 KCHS 200325
RWRCHS

REGIONAL WEATHER ROUNDUP
NATIONAL WEATHER SERVICE CHARLESTON SC
1100 PM EDT SUN OCT 19 2014

NOTE: "FAIR" INDICATES FEW OR NO CLOUDS BELOW 12,000 FEET WITH NO
SIGNIFICANT WEATHER AND/OR OBSTRUCTIONS TO VISIBILITY.

NOT ALL STATIONS ARE QUALITY CONTROLLED BY THE NATIONAL
WEATHER SERVICE. USE DATA WITH CAUTION...ESPECIALLY
DEWPOINT OBSERVATIONS.

SCZ027-030-031-034>040-042>050-200400-
...SOUTH CAROLINA...

CITY           SKY/WX    TMP DP  RH WIND       PRES   REMARKS
N CHARLESTON   PTCLDY    56  50  80 CALM      30.12S
WATERFRONT PRK   N/A     64 N/A N/A CALM        N/A
FORT JOHNSON   NOT AVBL
JOHNS ISLAND   CLEAR     54  52  94 CALM      30.13S
PINOPOLIS        N/A     61  48  63 CALM      30.05R
MONCKS CORNER  FAIR      52  52 100 CALM      30.13R
SUMMERVILLE    FAIR      52  52 100 CALM      30.13S
BEAUFORT MCAS  CLEAR     55  51  86 CALM      30.13R
BEAUFORT ARPT  FAIR      55  55 100 CALM      30.12R
HILTON HEAD IS   N/A     54  52  94 CALM      30.14R
GEORGETOWN     NOT AVBL
WALTERBORO     CLEAR     52 N/A N/A CALM      30.13S
ORANGEBURG     CLEAR     52  48  86 CALM      30.13R
BARNWELL       FAIR      52  48  87 CALM      30.13S
AIKEN          FAIR      50  50 100 CALM      30.16R
MANNING        FAIR      50 N/A N/A CALM      30.13S
KINGSTREE      NOT AVBL
COLUMBIA       CLEAR     51  47  86 W3        30.12R
SUMTER         PTCLDY    49  46  89 CALM      30.12R
FLORENCE       CLEAR     50  47  89 CALM      30.13R
MYRTLE BEACH   CLEAR     54  46  76 N5        30.13R
N MYRTLE BEACH CLEAR     50  48  93 NE5       30.13S

$$

GAZ063-065-086>088-099>101-113>116-118-119-134-136>141-150-200400-
...GEORGIA...

CITY           SKY/WX    TMP DP  RH WIND       PRES   REMARKS
SAVANNAH ARPT  PTCLDY    56  51  84 CALM      30.12S
HUNTER AAF     CLEAR     55  53  91 SW1       30.10S
FORT STEWART   CLEAR     52  50  92 CALM      30.11R
STATESBORO     NOT AVBL
SYLVANIA       CLEAR     55  54  97 CALM      30.13S
CLAXTON        FAIR      52  52 100 CALM      30.13R
THOMSON        CLEAR     51  51 100 CALM      30.17R
AUGUSTA-BUSH   CLEAR     49  46  90 CALM      30.12R
AUGUSTA-DANIEL CLEAR     61  49  64 SE6       30.13R
SWAINSBORO     FAIR      54  52  94 MISG      30.13R
VIDALIA        CLEAR     55  52  88 CALM      30.12S
ALMA           CLEAR     53  50  89 CALM      30.11S
WAYCROSS       CLEAR     58  57  97 CALM      30.12R
JESUP          FAIR      54  54 100 CALM      30.12S
BRUNSWICK      CLEAR     54  52  94 CALM      30.13R
SAINT SIMONS   CLEAR     57  53  86 CALM      30.11R

$$

SCZ027-028-034-036>038-045-046-048>050-GAZ119-141-200400-
...LAKE AND SUPPLEMENTAL COASTAL OBSERVATIONS...

STATION/POSITION TIME  TEMP    WIND        PRES    WAVE   SWELL
                       AIR SEA DIR/SP/G            HT/PER HT/PER/DIR
                 (UTC) (F)     (DEG/KT/KT) (MB)    (FT/S) (FT/S/D)
UPR LAKE MARION  NOT AVBL
WINYAH BAY       0300   56     330/  2     1020.0S
LAKE MURRAY      0300   60      CALM  /  2 1019.6R
ACE BASIN NERRS  0300   54        CALM     1019.0S
FORT PULASKI     0300   67      40/  4/  5 1020.1R
SAPELO ISLAND    NOT AVBL

$$

ANZ835-935-AMZ111-154-330-350-352-354-374-450-454-472-200400-
...C-MAN AND BUOY OBSERVATIONS...

STATION/POSITION TIME  TEMP    WIND        PRES    WAVE   SWELL
                       AIR SEA DIR/SP/G            HT/PER HT/PER/DIR
                 (UTC) (F)     (DEG/KT/KT) (MB)    (FT/S) (FT/S/D)
FOLLY BEACH CMAN 0300   61     300/  3/  4 1020.4R
BUOY 41004       0300   69 80   50/  8/ 12 1019.7R   3/12   3/12
BUOY 41008       0300   69 76   70/  8/ 12 1019.6R   3/ 7   3/ 70/ 7
5E ST. MARYS GA  0300      77                N/A     3/ 5   2/ 90/13
FRYING PAN BUOY  0300   66 75   20/  8/ 12 1021.0R   2/11   2/100/11
BUOY 41025       0300   62     350/ 16/ 19 1019.7S   4/ 8   3/ 10/ 8
CAPE LOOKOUT NC  0300   60     360/  8/  9 1020.3R
BUOY 41002       0201   70 80   30/ 12/ 16 1019.3R   6/ 8   5/350/ 8
BUOY 41010       0300   77 80   40/ 16/ 19 1017.5S   5/ 7   2/ 60/10
BUOY 41012       NOT AVBL
ST AUGUSTINE FL  0300   73      50/ 13/ 14 1019.3R
CAPERS NEARSHORE 0200   66     360/  6/  8   N/A
FRIPP NEARSHORE  NOT AVBL


$$


USA.gov is the U.S. government's official web portal to all federal, state and local government web resources and services.